Regional Weather Roundup
Issued by NWS

Home | Current Version | Previous Version | Graphics & Text | Print | Product List | Glossary On
Versions: 1 2 3 4 5 6 7 8 9 10 11 12 13 14 15 16 17 18 19 20 21 22 23 24 25 26 27 28 29 30 31 32 33 34 35 36 37 38 39 40 41 42 43 44 45 46 47 48 49 50
206
ASUS43 KTOP 291408
RWRKS

WEATHER ROUNDUP FOR KANSAS
NATIONAL WEATHER SERVICE GOODLAND KS
900 AM CDT SUN MAY 29 2016

NOTE:  "FAIR" INDICATES FEW OR NO CLOUDS BELOW 12,000 FEET WITH NO
SIGNIFICANT WEATHER AND/OR OBSTRUCTIONS TO VISIBILITY.

KSZ001>006-013>018-027>032-041>047-291500-
NORTHWEST KANSAS

CITY           SKY/WX    TMP DP  RH WIND       PRES   REMARKS
GOODLAND       SUNNY     64  51  62 S10       30.14R
HAYS           CLOUDY    70  55  60 SW7       30.11S
HILL CITY      SUNNY     69  56  62 SW5       30.12S
RUSSELL        MOSUNNY   69  60  73 SW8       30.10R
$$

KSZ061>065-074>080-084>089-291500-
SOUTHWEST KANSAS

CITY           SKY/WX    TMP DP  RH WIND       PRES   REMARKS
DODGE CITY     SUNNY     69  58  67 S10       30.13S
ELKHART          N/A     67  57  70 SE17        N/A
GARDEN CITY    MOSUNNY   66  55  67 S6        30.13R
GREAT BEND     CLOUDY    66  55  68 SE10      30.12S
LIBERAL        CLOUDY    70  55  60 SE12      30.17S
PRATT          HAZE      65  59  80 NE6       30.14R VSB 1/4
$$

KSZ066>073-081>083-090>101-291500-
SOUTHEAST KANSAS

CITY           SKY/WX    TMP DP  RH WIND       PRES   REMARKS
CHANUTE        SUNNY     73  67  81 S5        30.12R
COFFEYVILLE    SUNNY     73  69  87 S3        30.12R
HUTCHINSON     SUNNY     73  65  75 SW5       30.13R
MEDICINE LODGE   N/A     72  63  73 CALM      30.11R
NEWTON         SUNNY     72  63  73 SW9       30.15R
PARSONS        SUNNY     73  69  87 S3        30.13R
WICHITA INTL   MOSUNNY   74  67  78 SW6       30.11R
WICHITA JABRA  SUNNY     75  68  78 SW9       30.12R
WICHITA MCCONL SUNNY     73  67  81 SW6       30.12R
WINFIELD       SUNNY     75  70  84 SW8       30.14R
$$

KSZ007>012-019>026-033>040-048>060-102>105-291500-
NORTHEAST KANSAS

CITY           SKY/WX    TMP DP  RH WIND       PRES   REMARKS
CONCORDIA      LGT RAIN  65  58  78 W7        30.13R
EMPORIA        SUNNY     73  65  75 SW6       30.12R
LAWRENCE       SUNNY     71  64  78 S3        30.10R
MANHATTAN      SUNNY     71  60  68 W6        30.11R
MARYSVILLE     SUNNY     70  61  73 SW6       30.11S
OLATHE IND     SUNNY     74  62  66 SW5       30.12R
OLATHE EXE     SUNNY     73  62  68 SW5       30.11R
SALINA         SUNNY     74  63  68 SW9       30.12R
TOPEKA BILLARD SUNNY     73  61  65 W3        30.10R
TOPEKA FORBES  SUNNY     74  63  68 SW8       30.10R
$$




USA.gov is the U.S. government's official web portal to all federal, state and local government web resources and services.